TimeCDT,TemperatureF,Dew PointF,Humidity,Sea Level PressureIn,VisibilityMPH,Wind Direction,Wind SpeedMPH,Gust SpeedMPH,PrecipitationIn,Events,Conditions,WindDirDegrees,DateUTC
12:15 AM,66.4,61.9,85,30.13,10.0,SSE,4.6,-,N/A,,Scattered Clouds,150,2013-09-05 05:15:00
12:35 AM,66.2,61.7,85,30.12,10.0,SE,3.5,-,N/A,,Scattered Clouds,140,2013-09-05 05:35:00
12:55 AM,65.8,61.9,87,30.13,10.0,ESE,5.8,-,N/A,,Scattered Clouds,120,2013-09-05 05:55:00
1:15 AM,65.8,61.9,87,30.13,10.0,SE,3.5,-,N/A,,Overcast,130,2013-09-05 06:15:00
1:35 AM,66.4,62.2,86,30.14,10.0,Calm,Calm,-,N/A,,Mostly Cloudy,0,2013-09-05 06:35:00
1:55 AM,66.4,62.6,88,30.14,10.0,Calm,Calm,-,N/A,,Overcast,0,2013-09-05 06:55:00
2:15 AM,66.6,63.0,88,30.15,10.0,Calm,Calm,-,N/A,,Overcast,0,2013-09-05 07:15:00
2:35 AM,67.1,63.0,87,30.14,10.0,Calm,Calm,-,N/A,,Mostly Cloudy,0,2013-09-05 07:35:00
2:55 AM,67.8,63.1,85,30.14,10.0,Calm,Calm,-,N/A,Rain,Light Rain,0,2013-09-05 07:55:00
3:15 AM,66.9,63.1,88,30.14,10.0,Calm,Calm,-,N/A,,Mostly Cloudy,0,2013-09-05 08:15:00
3:35 AM,67.3,63.7,88,30.14,10.0,Calm,Calm,-,N/A,,Overcast,0,2013-09-05 08:35:00
3:55 AM,68.9,63.5,83,30.15,10.0,Calm,Calm,-,N/A,,Overcast,0,2013-09-05 08:55:00
4:15 AM,67.8,63.9,87,30.15,10.0,ESE,5.8,-,N/A,,Overcast,110,2013-09-05 09:15:00
4:35 AM,68.0,63.7,86,30.15,10.0,ESE,4.6,-,N/A,,Overcast,110,2013-09-05 09:35:00
4:55 AM,67.6,63.7,87,30.15,10.0,East,4.6,-,N/A,,Overcast,100,2013-09-05 09:55:00
5:15 AM,67.6,63.3,86,30.14,10.0,SSE,5.8,-,N/A,,Mostly Cloudy,150,2013-09-05 10:15:00
5:35 AM,66.7,63.0,88,30.14,10.0,Calm,Calm,-,N/A,,Mostly Cloudy,0,2013-09-05 10:35:00
5:55 AM,66.7,63.3,89,30.16,10.0,Calm,Calm,-,N/A,,Overcast,0,2013-09-05 10:55:00
6:15 AM,66.6,63.3,89,30.17,10.0,Calm,Calm,-,N/A,,Mostly Cloudy,0,2013-09-05 11:15:00
6:35 AM,67.1,63.3,88,30.17,10.0,Calm,Calm,-,N/A,,Overcast,0,2013-09-05 11:35:00
6:55 AM,66.9,63.5,89,30.19,10.0,ENE,4.6,-,N/A,,Overcast,70,2013-09-05 11:55:00
7:15 AM,66.4,63.5,90,30.19,10.0,East,3.5,-,N/A,,Mostly Cloudy,80,2013-09-05 12:15:00
7:35 AM,67.3,63.5,88,30.19,10.0,ESE,6.9,-,N/A,,Scattered Clouds,110,2013-09-05 12:35:00
7:55 AM,68.0,63.1,84,30.19,10.0,ESE,6.9,-,N/A,,Scattered Clouds,120,2013-09-05 12:55:00
8:15 AM,69.3,63.5,82,30.18,10.0,SE,8.1,-,N/A,,Scattered Clouds,130,2013-09-05 13:15:00
8:35 AM,70.2,63.5,79,30.18,10.0,SE,6.9,-,N/A,,Scattered Clouds,130,2013-09-05 13:35:00
8:55 AM,71.4,63.9,77,30.19,10.0,SE,6.9,-,N/A,,Clear,130,2013-09-05 13:55:00
9:15 AM,73.8,64.2,72,30.19,10.0,SSE,6.9,-,N/A,,Clear,150,2013-09-05 14:15:00
9:35 AM,75.2,64.0,68,30.19,10.0,SE,6.9,-,N/A,,Clear,140,2013-09-05 14:35:00
9:55 AM,76.1,63.3,64,30.20,10.0,SE,8.1,-,N/A,,Clear,140,2013-09-05 14:55:00
10:15 AM,77.0,63.3,63,30.19,10.0,SE,9.2,-,N/A,,Scattered Clouds,140,2013-09-05 15:15:00
10:35 AM,79.3,62.8,57,30.19,10.0,SSE,9.2,-,N/A,,Clear,150,2013-09-05 15:35:00
10:55 AM,81.0,63.3,55,30.18,10.0,SSE,9.2,-,N/A,,Clear,150,2013-09-05 15:55:00
11:15 AM,82.4,62.6,51,30.19,10.0,SE,10.4,-,N/A,,Clear,140,2013-09-05 16:15:00
11:35 AM,84.2,61.0,45,30.19,10.0,SSE,10.4,-,N/A,,Clear,150,2013-09-05 16:35:00
11:55 AM,85.5,59.5,41,30.19,10.0,SSE,12.7,-,N/A,,Clear,150,2013-09-05 16:55:00
12:15 PM,86.7,59.5,40,30.18,10.0,SSE,11.5,-,N/A,,Clear,160,2013-09-05 17:15:00
12:35 PM,88.2,58.1,36,30.17,10.0,SSE,12.7,-,N/A,,Clear,160,2013-09-05 17:35:00
12:55 PM,89.4,58.5,35,30.17,10.0,South,10.4,-,N/A,,Clear,180,2013-09-05 17:55:00
1:15 PM,88.3,57.4,35,30.17,10.0,South,10.4,-,N/A,,Clear,180,2013-09-05 18:15:00
1:35 PM,90.3,57.4,33,30.16,10.0,SSE,10.4,-,N/A,,Clear,150,2013-09-05 18:35:00
1:55 PM,90.1,56.5,32,30.16,-9999.0,SE,9.2,-,0.01,,Clear,140,2013-09-05 18:55:00
2:15 PM,89.1,57.4,34,30.15,10.0,SSE,10.4,-,N/A,,Clear,150,2013-09-05 19:15:00
2:35 PM,88.3,57.2,35,30.16,10.0,South,6.9,-,N/A,,Scattered Clouds,170,2013-09-05 19:35:00
2:55 PM,90.0,58.1,34,30.15,10.0,South,6.9,-,N/A,,Mostly Cloudy,170,2013-09-05 19:55:00
3:15 PM,88.3,57.7,35,30.12,10.0,SSE,11.5,-,N/A,,Scattered Clouds,160,2013-09-05 20:15:00
3:35 PM,84.7,59.5,42,30.10,10.0,SSE,13.8,-,N/A,,Clear,150,2013-09-05 20:35:00
3:55 PM,84.2,59.0,42,30.11,10.0,SE,4.6,-,N/A,,Clear,130,2013-09-05 20:55:00
4:15 PM,87.3,59.9,40,30.11,10.0,SE,8.1,-,N/A,,Clear,140,2013-09-05 21:15:00
4:35 PM,84.0,59.2,43,30.12,10.0,SE,10.4,-,N/A,,Clear,130,2013-09-05 21:35:00
4:55 PM,84.9,58.8,41,30.11,10.0,SE,12.7,-,N/A,,Clear,130,2013-09-05 21:55:00
5:15 PM,83.3,57.9,42,30.11,10.0,SE,11.5,18.4,N/A,,Clear,140,2013-09-05 22:15:00
5:35 PM,82.4,59.4,45,30.13,10.0,SE,4.6,-,N/A,,Scattered Clouds,140,2013-09-05 22:35:00
5:55 PM,80.8,61.0,51,30.14,10.0,SE,5.8,-,N/A,,Scattered Clouds,130,2013-09-05 22:55:00
6:15 PM,80.2,61.2,52,30.12,10.0,SE,9.2,-,N/A,,Scattered Clouds,140,2013-09-05 23:15:00
6:35 PM,79.9,61.2,53,30.14,10.0,Calm,Calm,-,N/A,,Scattered Clouds,0,2013-09-05 23:35:00
6:55 PM,79.0,63.7,59,30.14,10.0,ESE,4.6,-,N/A,Rain,Light Rain,110,2013-09-05 23:55:00
7:15 PM,79.3,63.5,58,30.14,10.0,East,3.5,-,N/A,,Clear,100,2013-09-06 00:15:00
7:35 PM,78.3,63.7,61,30.13,10.0,ESE,6.9,-,N/A,,Clear,120,2013-09-06 00:35:00
7:55 PM,77.0,62.8,61,30.12,10.0,ESE,8.1,-,N/A,,Clear,120,2013-09-06 00:55:00
8:15 PM,75.0,63.0,66,30.12,10.0,ESE,5.8,-,N/A,,Clear,120,2013-09-06 01:15:00
8:35 PM,73.9,62.4,67,30.13,10.0,SE,5.8,-,N/A,,Clear,130,2013-09-06 01:35:00
8:55 PM,72.1,62.6,72,30.13,10.0,SE,5.8,-,N/A,,Clear,130,2013-09-06 01:55:00
9:15 PM,71.6,62.1,72,30.12,10.0,SE,8.1,-,N/A,,Clear,140,2013-09-06 02:15:00
9:35 PM,70.9,62.6,75,30.13,10.0,SSE,4.6,-,N/A,,Clear,150,2013-09-06 02:35:00
9:55 PM,70.9,63.0,76,30.12,10.0,SSE,6.9,-,N/A,,Clear,150,2013-09-06 02:55:00
10:15 PM,71.8,63.0,74,30.11,10.0,South,8.1,-,N/A,,Scattered Clouds,170,2013-09-06 03:15:00
10:35 PM,70.9,63.5,77,30.11,10.0,SSE,3.5,-,N/A,Rain,Light Rain,150,2013-09-06 03:35:00
10:55 PM,69.3,63.0,80,30.11,10.0,SSE,5.8,-,N/A,,Clear,160,2013-09-06 03:55:00
11:15 PM,68.5,62.6,81,30.10,10.0,SSE,6.9,-,N/A,,Clear,150,2013-09-06 04:15:00
11:35 PM,69.3,62.6,79,30.10,10.0,SSE,5.8,-,N/A,,Clear,150,2013-09-06 04:35:00
11:55 PM,68.0,61.9,81,30.10,10.0,South,5.8,-,N/A,,Clear,190,2013-09-06 04:55:00